Location: Buchloe
(48.0161°N, 10.7316°E)
Time: 08:12:07
(UTC+02:00)

ISS - Pass Details

Date: 19 May 2018
Orbit: 402 x 407 km, 51.6° (Epoch: 24 May)

Event Time Altitude Azimuth Distance (km) Brightness Sun altitude
Exits shadow 00:57:36 31° 57° (ENE) 740 -2.3 -22.2°
Drops below altitude 10° 00:59:27 10° 66° (ENE) 1,458 -0.8 -22.2°
Sets 01:01:33 0° 69° (ENE) 2,318 0.3 -22.2°
